Home > Time Zones > World Clock > Weather > Egypt > Cairo > Past weeks

Flag for Egypt Weather past 2 weeks in Cairo, Egypt

Now
82 °F

Clear.


Feels Like: 84 °F
Forecast: 72 / 92 °F
Wind: 12 mph from North

Location: Cairo Airport

Current Time: Sep 17, 2014 at 9:35:16 PM

Latest Report: Sep 17, 2014 at 9:00 PM


Visibility: 10 mi

Pressure: 29.89 "Hg

Humidity: 55%

Dew point: 64 °F

Location of CairoLocation

Historic Weather in Cairo — Graph

°F

Cairo temperature yesterday

Maximum temperature yesterday: 102 °F (at 4:00 PM)
Minimum temperature yesterday: 75 °F (at 5:30 AM)
Average temperature yesterday: 89 °F

Past Weeks' High & Low Weather Summary

 TemperatureHumidityPressure
High104 °F (Sep 4, 2:00 PM)83% (Sep 5, 6:00 AM)29.98 "Hg (Sep 5, 6:00 AM)
Low73 °F (Sep 13, 6:30 AM)13% (Sep 4, 1:00 PM)29.74 "Hg (Sep 5, 6:00 PM)
Average84 °F52%29.88 "Hg
* Reported Sep 2 8:00 PM — Sep 17 8:30 PM, Cairo, Weather by CustomWeather, © 2014

Note: Actual official high and low records may vary slightly from our data, if they occured in-between our weather recording intervals... More about our weather records

Advertising

Cairo weather history for previous 24 hours

 ConditionsComfort  
Time TempWeatherWind HumidityBarometerVisibility
8:30 PM
Sep 17
82 °FClear.12 mph51%29.86 "Hg10 mi
8:00 PM84 °FClear.12 mph51%29.86 "Hg10 mi
7:30 PM84 °FPassing clouds.14 mph51%29.83 "HgN/A
7:00 PM86 °FPassing clouds.14 mph49%29.83 "HgN/A
6:30 PM88 °FScattered clouds.14 mph49%29.83 "HgN/A
6:00 PM90 °FScattered clouds.14 mph46%29.80 "HgN/A
5:30 PM90 °FScattered clouds.14 mph46%29.80 "HgN/A
5:00 PM91 °FScattered clouds.13 mph44%29.80 "HgN/A
4:30 PM91 °FScattered clouds.12 mph44%29.80 "Hg4 mi
4:00 PM91 °FScattered clouds.13 mph46%29.77 "Hg4 mi
3:30 PM93 °FScattered clouds.12 mph44%29.80 "Hg4 mi
3:00 PM93 °FClear.10 mph44%29.77 "Hg4 mi
2:30 PM91 °FClear.10 mph46%29.80 "Hg4 mi
2:00 PM91 °FClear.8 mph44%29.80 "Hg4 mi
1:30 PM91 °FClear.10 mph44%29.80 "Hg4 mi
1:00 PM90 °FClear.12 mph49%29.80 "Hg4 mi
12:30 PM90 °FClear.10 mph49%29.80 "Hg4 mi
12:00 PM88 °FClear.10 mph49%29.80 "Hg4 mi
11:30 AM88 °FHaze.9 mph52%29.80 "Hg2 mi
11:00 AM86 °FHaze.9 mph55%29.83 "Hg2 mi
10:30 AM86 °FHaze.10 mph52%29.83 "Hg2 mi
10:00 AM84 °FHaze.8 mph55%29.80 "Hg1 mi
9:30 AM82 °FHaze.9 mph58%29.80 "Hg1 mi
9:00 AM79 °FHaze.7 mph70%29.80 "Hg1 mi
8:30 AM77 °FHaze.6 mph69%29.77 "Hg1 mi
8:00 AM77 °FHaze.6 mph69%29.77 "Hg2 mi
7:30 AM77 °FHaze.No wind65%29.77 "Hg2 mi
7:00 AM77 °FHaze.No wind65%29.77 "Hg2 mi
6:30 AM79 °FClear.No wind58%29.74 "Hg4 mi
6:00 AM79 °FClear.No wind58%29.74 "Hg4 mi
5:30 AM81 °FClear.No wind51%29.74 "Hg4 mi
5:00 AM81 °FClear.No wind51%29.74 "Hg4 mi
4:30 AM81 °FClear.No wind48%29.74 "Hg4 mi
4:00 AM82 °FClear.No wind45%29.74 "Hg4 mi
3:30 AM86 °FClear.7 mph29%29.74 "Hg10 mi
3:00 AM84 °FClear.2 mph37%29.74 "Hg10 mi
2:30 AM84 °FClear.No wind33%29.74 "Hg10 mi
2:00 AM86 °FClear.1 mph31%29.74 "Hg10 mi
1:30 AM86 °FClear.No wind25%29.74 "Hg10 mi
1:00 AM86 °FClear.No wind33%29.74 "Hg10 mi
12:30 AM86 °FClear.No wind33%29.74 "Hg10 mi
12:00 AM88 °FClear.8 mph31%29.77 "Hg10 mi
11:30 PM
Sep 16
88 °FClear.10 mph31%29.77 "Hg10 mi
11:00 PM88 °FClear.13 mph27%29.77 "Hg10 mi
10:30 PM90 °FClear.9 mph33%29.77 "Hg10 mi
10:00 PM90 °FClear.9 mph33%29.77 "Hg10 mi
9:30 PM90 °FClear.13 mph33%29.77 "Hg10 mi
9:00 PM91 °FClear.15 mph32%29.77 "Hg10 mi
Weather by CustomWeather, © 2014

See weather overviewHow to use our weather pages